星链-4119 (STARLINK-4119 )

导读

STARLINK-4119是美国SpaceX公司于2022年7月7日发射的星链系列卫星,属于星链星座组网的组成部分。星链计划旨在近地轨道构建超大规模卫星互联网星座,提供全球覆盖的高速宽带接入服务,目前在轨卫星已超9600颗,该卫星主要承担全球网络覆盖补网功能,服务偏远地区网络接入等场景。

Basic Information
目录编号:
53026
目录名称:
STARLINK-4119
国际标识:
2022-076AS
轨道中心:
EARTH
卫星名称:
星链-4119
卫星全名:
星链-4119 (STARLINK-4119 )
卫星状态:
在轨 (已飞行1528 天)
发射日期:
2022-07-07 UTC
国别 :
美国 (US)
星等 :
--
This satellite is enrolled in the Space Conjunction Data Service (SCDS) and the current flight risk assessment level is: No High Risk
Orbit Information
数据来源 国际轨道数据
星历时间: 2026-09-12T12:47:26+0800
5小时前
查看轨道信息
半长轴: 6848.869km
偏心率: 0.0001103
轨道倾角: 53.160°
近地点辐角 83.972°
升交点赤经 312.877°
平近点角 276.141°
近地点: 469.976km
远地点: 471.488km
周期: 94.013分钟
每日圈数: 15.317027
Detailed Information
固有亮度:
5
最大亮度:
2.5
卫星平台:
Starlink v1.5
覆盖范围:
全球
运营商:
太空探索技术公司
运营商所在国:
美国
制造商(研发单位):
太空探索技术公司
制造商所在国:
美国
使用方式:
暂无
Satellite Introduction
星链(Starlink)计划是由太空探索技术公司(SpaceX)提出的一个巨型低轨卫星互联网星座项目,计划在2019年至2024年间在太空搭建由约1.2万颗卫星组成的“星链”网络,其中1584颗将部署在地球上空550千米处的近地轨道,并从2020年开始工作。该卫星仍在工作。
2D Orbit Map
3D Orbit Map
Orbit Altitude Analysis Chart
Orbit Inclination Analysis Chart
Orbit Comprehensive Analysis Chart
View Comprehensive Chart
Conjunction Data List
Event ID Objects TCA Miss Dist (km) Collision Risk Probability Collision Risk Index (CRI) Action
CDM_260913-161105-302606-123022
OBJECT D (61230)
2026-09-13T
16:11:21+0000
1.732 km
极远距离
2.546093E-6 低风险 0.43
CDM_260912-230505-302605-349421
2026-09-12T
23:05:42+0000
2.966 km
极远距离
1.037999E-6 低风险 0.35
CDM_260913-165805-302606-123021
OBJECT D (61230)
2026-09-13T
16:58:26+0000
2.886 km
极远距离
8.972437E-7 极低风险 0.34
Miss Distance Evolution Trend with All Objects
Collision Probability Evolution Trend with All Objects